• In Moldova, Republic
  • List of Countries
  • For 7 days
  • Water Temperature
  • Satellite Maps
  • Weather Map
  • Weather Widgets
  • user-avatar
    Login

    Hourly Weather Bendery

    Today, 17 November, Saturday

    Time Temperature Precipitation Wind Pressure Humidity
    00:00 -1°C° 0.1 mm 5 mps 764 mmHg 68%
    01:00 -1°C° 0.1 mm 5 mps 764 mmHg 68%
    02:00 -1°C° 0.1 mm 5 mps 765 mmHg 68%
    03:00 -1°C° 0 mm 5 mps 765 mmHg 68%
    04:00 -1°C° 0 mm 5 mps 765 mmHg 68%
    05:00 -1°C° 0 mm 5 mps 765 mmHg 69%
    06:00 -1°C° 0 mm 5 mps 765 mmHg 70%
    07:00 -1°C° 0 mm 5 mps 765 mmHg 71%
    08:00 -1°C° 0 mm 5 mps 765 mmHg 73%
    09:00 -1°C° 0 mm 5 mps 765 mmHg 71%
    10:00 0°C° 0 mm 5 mps 766 mmHg 70%
    11:00 0°C° 0 mm 5 mps 766 mmHg 69%
    12:00 +1°C° 0 mm 4 mps 766 mmHg 67%
    13:00 +1°C° 0 mm 4 mps 765 mmHg 66%
    14:00 +1°C° 0 mm 4 mps 765 mmHg 64%
    15:00 +1°C° 0 mm 4 mps 765 mmHg 66%
    16:00 +2°C° 0 mm 3 mps 765 mmHg 68%
    17:00 +1°C° 0 mm 3 mps 765 mmHg 70%
    18:00 +1°C° 0 mm 3 mps 765 mmHg 71%
    19:00 +1°C° 0 mm 3 mps 765 mmHg 72%
    20:00 +1°C° 0 mm 3 mps 765 mmHg 73%
    21:00 +1°C° 0 mm 3 mps 765 mmHg 76%
    22:00 0°C° 0 mm 3 mps 764 mmHg 79%
    23:00 +1°C° 0 mm 2 mps 764 mmHg 81%

    Tomorrow, 18 November, Sunday

    Time Temperature Precipitation Wind Pressure Humidity
    00:00 +1°C° 0 mm 2 mps 764 mmHg 80%
    01:00 +1°C° 0 mm 2 mps 764 mmHg 79%
    02:00 +1°C° 0 mm 2 mps 764 mmHg 78%
    03:00 +1°C° 0 mm 2 mps 763 mmHg 77%
    04:00 0°C° 0 mm 3 mps 763 mmHg 77%
    05:00 -1°C° 0 mm 3 mps 762 mmHg 76%
    06:00 -1°C° 0 mm 2 mps 762 mmHg 76%
    07:00 -1°C° 0 mm 2 mps 761 mmHg 76%
    08:00 -2°C° 0 mm 2 mps 761 mmHg 75%
    09:00 +1°C° 0 mm 2 mps 761 mmHg 68%
    10:00 +2°C° 0 mm 2 mps 761 mmHg 60%
    11:00 +3°C° 0 mm 2 mps 760 mmHg 53%
    12:00 +3°C° 0 mm 2 mps 760 mmHg 51%
    13:00 +4°C° 0 mm 2 mps 759 mmHg 49%
    14:00 +5°C° 0 mm 2 mps 758 mmHg 46%
    15:00 +4°C° 0 mm 2 mps 758 mmHg 49%
    16:00 +3°C° 0 mm 2 mps 757 mmHg 51%
    17:00 +3°C° 0 mm 1 mps 757 mmHg 53%
    18:00 +3°C° 0 mm 1 mps 757 mmHg 53%
    19:00 +2°C° 0 mm 0 mps 757 mmHg 54%
    20:00 +1°C° 0 mm 0 mps 756 mmHg 54%
    21:00 +1°C° 0 mm 0 mps 756 mmHg 55%
    22:00 +1°C° 0 mm 0 mps 756 mmHg 56%
    23:00 0°C° 0 mm 0 mps 756 mmHg 56%

    Day after tomorrow, 19 November, Monday

    Time Temperature Precipitation Wind Pressure Humidity
    00:00 0°C° 0 mm 0 mps 755 mmHg 57%
    01:00 0°C° 0 mm 0 mps 755 mmHg 58%
    02:00 -1°C° 0 mm 0 mps 755 mmHg 59%
    03:00 -1°C° 0 mm 0 mps 755 mmHg 58%
    04:00 0°C° 0 mm 1 mps 754 mmHg 58%
    05:00 0°C° 0 mm 1 mps 754 mmHg 58%
    06:00 +1°C° 0 mm 1 mps 754 mmHg 57%
    07:00 +1°C° 0 mm 1 mps 754 mmHg 56%
    08:00 +1°C° 0 mm 1 mps 754 mmHg 55%
    09:00 +1°C° 0 mm 2 mps 754 mmHg 54%
    10:00 +2°C° 0 mm 2 mps 754 mmHg 53%
    11:00 +3°C° 0 mm 2 mps 755 mmHg 51%
    12:00 +3°C° 0 mm 2 mps 754 mmHg 53%
    13:00 +2°C° 0 mm 3 mps 754 mmHg 54%
    14:00 +3°C° 0 mm 3 mps 754 mmHg 56%
    15:00 +2°C° 0 mm 3 mps 754 mmHg 59%
    16:00 +1°C° 0 mm 3 mps 754 mmHg 63%
    17:00 +1°C° 0 mm 3 mps 754 mmHg 67%
    18:00 0°C° 0 mm 3 mps 754 mmHg 70%
    19:00 0°C° 0 mm 3 mps 754 mmHg 74%
    20:00 0°C° 0 mm 3 mps 754 mmHg 77%
    21:00 0°C° 0.1 mm 3 mps 754 mmHg 79%
    22:00 +1°C° 0.1 mm 2 mps 754 mmHg 82%
    23:00 +1°C° 0.1 mm 2 mps 754 mmHg 85%

    20 November, Tuesday

    Time Temperature Precipitation Wind Pressure Humidity
    00:00 +1°C° 0.1 mm 2 mps 754 mmHg 87%
    01:00 +1°C° 0.1 mm 2 mps 755 mmHg 89%
    02:00 +1°C° 0.1 mm 2 mps 755 mmHg 91%
    03:00 +1°C° 0 mm 2 mps 755 mmHg 92%
    04:00 +1°C° 0 mm 2 mps 754 mmHg 93%
    05:00 -1°C° 0 mm 2 mps 754 mmHg 94%
    06:00 +1°C° 0 mm 2 mps 754 mmHg 94%
    07:00 +1°C° 0 mm 2 mps 755 mmHg 94%
    08:00 +1°C° 0 mm 2 mps 755 mmHg 95%
    09:00 +1°C° 0 mm 3 mps 755 mmHg 92%
    10:00 +2°C° 0 mm 3 mps 755 mmHg 89%
    11:00 +3°C° 0 mm 3 mps 755 mmHg 87%
    12:00 +3°C° 0.1 mm 3 mps 754 mmHg 85%
    13:00 +4°C° 0.1 mm 4 mps 754 mmHg 83%
    14:00 +5°C° 0.1 mm 4 mps 754 mmHg 82%
    15:00 +5°C° 0.1 mm 4 mps 753 mmHg 84%
    16:00 +5°C° 0.1 mm 4 mps 753 mmHg 85%
    17:00 +5°C° 0.1 mm 5 mps 752 mmHg 87%
    18:00 +4°C° 0.6 mm 6 mps 752 mmHg 87%
    19:00 +4°C° 0.6 mm 7 mps 751 mmHg 88%
    20:00 +4°C° 0.6 mm 7 mps 751 mmHg 88%
    21:00 +5°C° 1 mm 8 mps 750 mmHg 89%
    22:00 +6°C° 1 mm 8 mps 749 mmHg 89%
    23:00 +6°C° 1 mm 9 mps 748 mmHg 90%

    21 November, Wednesday

    Time Temperature Precipitation Wind Pressure Humidity
    00:00 +7°C° 2.1 mm 9 mps 748 mmHg 91%
    01:00 +9°C° 2.1 mm 8 mps 747 mmHg 92%
    02:00 +10°C° 2.1 mm 8 mps 746 mmHg 93%
    03:00 +10°C° 0.4 mm 7 mps 746 mmHg 94%
    04:00 +11°C° 0.4 mm 6 mps 745 mmHg 94%
    05:00 +12°C° 0.4 mm 5 mps 745 mmHg 95%
    06:00 +12°C° 0 mm 5 mps 745 mmHg 95%
    07:00 +12°C° 0 mm 5 mps 745 mmHg 95%
    08:00 +12°C° 0 mm 4 mps 745 mmHg 95%
    09:00 +13°C° 0.1 mm 5 mps 745 mmHg 91%
    10:00 +14°C° 0.1 mm 5 mps 745 mmHg 87%
    11:00 +15°C° 0.1 mm 5 mps 745 mmHg 84%
    12:00 +15°C° 0 mm 4 mps 745 mmHg 85%
    13:00 +16°C° 0 mm 3 mps 744 mmHg 86%
    14:00 +14°C° 0 mm 3 mps 744 mmHg 87%
    15:00 +15°C° 0 mm 2 mps 744 mmHg 89%
    16:00 +15°C° 0 mm 2 mps 744 mmHg 90%
    17:00 +14°C° 0 mm 2 mps 745 mmHg 92%
    18:00 +14°C° 0.1 mm 2 mps 745 mmHg 93%
    19:00 +13°C° 0.1 mm 2 mps 745 mmHg 94%
    20:00 +13°C° 0.1 mm 2 mps 745 mmHg 95%
    21:00 +13°C° 0.1 mm 2 mps 745 mmHg 95%
    22:00 +12°C° 0.1 mm 1 mps 745 mmHg 96%
    23:00 +12°C° 0.1 mm 1 mps 745 mmHg 96%

    22 November, Thursday

    Time Temperature Precipitation Wind Pressure Humidity
    00:00 +12°C° 0 mm 1 mps 745 mmHg 96%
    01:00 +11°C° 0 mm 1 mps 745 mmHg 96%
    02:00 +11°C° 0 mm 1 mps 745 mmHg 96%
    03:00 +11°C° 0.1 mm 1 mps 745 mmHg 96%
    04:00 +10°C° 0.1 mm 2 mps 746 mmHg 96%
    05:00 +10°C° 0.1 mm 2 mps 746 mmHg 95%
    06:00 +10°C° 0.1 mm 2 mps 746 mmHg 95%
    07:00 +10°C° 0.1 mm 2 mps 746 mmHg 94%
    08:00 +10°C° 0.1 mm 3 mps 747 mmHg 94%
    09:00 +10°C° 0 mm 3 mps 747 mmHg 92%
    10:00 +10°C° 0 mm 3 mps 747 mmHg 90%
    11:00 +11°C° 0 mm 3 mps 748 mmHg 88%
    12:00 +11°C° 0 mm 4 mps 748 mmHg 86%
    13:00 +11°C° 0 mm 4 mps 748 mmHg 85%
    14:00 +11°C° 0 mm 4 mps 748 mmHg 83%
    15:00 +10°C° 0 mm 4 mps 748 mmHg 84%
    16:00 +10°C° 0 mm 4 mps 749 mmHg 84%
    17:00 +8°C° 0 mm 4 mps 749 mmHg 85%
    18:00 +8°C° 0.2 mm 4 mps 750 mmHg 86%
    19:00 +8°C° 0.2 mm 4 mps 750 mmHg 86%
    20:00 +7°C° 0.2 mm 4 mps 750 mmHg 87%
    21:00 +7°C° 0.2 mm 4 mps 751 mmHg 86%
    22:00 +7°C° 0.2 mm 4 mps 751 mmHg 86%
    23:00 +6°C° 0.2 mm 4 mps 751 mmHg 86%
    Show more